This demonstration page uses our WeatherBlox Daily Observations layout. Learn more.

Left ArrowRight Arrow

44.8408, -93.29828

Hourly Observations for January 1, 2020

Temp ( °F °C ) Dew Point ( °F °C ) Humidity (%) Winds ( mph kmh ) Pressure ( in mb ) Visibility ( mi km ) Precip ( " mm )
12:53 am 00:53 Mostly Clear 15 -9.4 10 -12.2 80 80 S 7 11 29.72 1007 9 14 0.00 0.00
1:53 am 01:53 Mostly Cloudy 16 -8.9 10 -12.2 77 77 S 6 9 29.69 1005 10 16 0.00 0.00
2:53 am 02:53 Mostly Cloudy 14 -10 9 -12.8 80 80 ESE 7 11 29.67 1005 10 16 0.00 0.00
3:53 am 03:53 Partly Cloudy 14 -10 10 -12.2 84 84 SSE 6 9 29.63 1003 10 16 0.00 0.00
4:53 am 04:53 Mostly Cloudy 15 -9.4 10 -12.2 80 80 SE 6 9 29.59 1002 10 16 0.00 0.00
5:53 am 05:53 Cloudy 17 -8.3 13 -10.6 84 84 SSE 8 13 29.56 1001 10 16 0.00 0.00
6:53 am 06:53 Mostly Cloudy 18 -7.8 13 -10.6 81 81 SSE 7 11 29.53 1000 10 16 0.00 0.00
7:53 am 07:53 Partly Cloudy 18 -7.8 14 -10 84 84 SSE 8 13 29.50 999 10 16 0.00 0.00
8:53 am 08:53 Partly Cloudy 18 -7.8 14 -10 84 84 SSE 6 9 29.50 999 10 16 0.00 0.00
9:53 am 09:53 Cloudy 23 -5 17 -8.3 78 78 S 5 7 29.48 998 10 16 0.00 0.00
10:53 am 10:53 Cloudy 27 -2.8 20 -6.7 75 75 S 7 11 29.45 997 10 16 0.00 0.00
11:53 am 11:53 Mostly Cloudy 30 -1.1 20 -6.7 66 66 SW 10 17 29.43 997 10 16 0.00 0.00
12:53 pm 12:53 Cloudy 31 -0.6 21 -6.1 67 67 SSW 9 15 29.39 995 10 16 0.00 0.00
1:53 pm 13:53 Partly Cloudy 32 0 22 -5.6 66 66 SSW 9 15 29.36 994 10 16 0.00 0.00
2:53 pm 14:53 Partly Cloudy 33 0.6 23 -5 66 66 SSW 7 11 29.36 994 10 16 0.00 0.00
3:53 pm 15:53 Mostly Cloudy 34 1.1 23 -5 64 64 SSW 8 13 29.35 994 10 16 0.00 0.00
4:53 pm 16:53 Mostly Cloudy 33 0.6 23 -5 66 66 S 6 9 29.35 994 10 16 0.00 0.00
5:53 pm 17:53 Mostly Cloudy 30 -1.1 23 -5 75 75 S 5 7 29.35 994 10 16 0.00 0.00
6:53 pm 18:53 Cloudy 33 0.6 25 -3.9 72 72 VRB 6 9 29.35 994 10 16 0.00 0.00
7:53 pm 19:53 Mostly Cloudy 34 1.1 26 -3.3 73 73 S 9 15 29.32 993 10 16 0.00 0.00
8:53 pm 20:53 Mostly Cloudy 35 1.7 27 -2.8 72 72 S 6 9 29.31 993 10 16 0.00 0.00
9:53 pm 21:53 Cloudy 35 1.7 28 -2.2 76 76 SW 7 11 29.31 993 10 16 0.00 0.00
10:53 pm 22:53 Cloudy 36 2.2 28 -2.2 73 73 SW 6 9 29.30 992 10 16 0.00 0.00
11:53 pm 23:53 Cloudy 35 1.7 28 -2.2 76 76 SW 6 9 29.30 992 10 16 0.00 0.00

Powered by AerisWeather